Time,TemperatureF,DewpointF,PressureIn,WindDirection,WindDirectionDegrees,WindSpeedMPH,WindSpeedGustMPH,Humidity,HourlyPrecipIn,Conditions,Clouds,dailyrainin,SolarRadiationWatts/m^2,SoftwareType,DateUTC
2013-02-24 00:00:00,32.2,30.1,29.86,North,0,0.0,0.0,92,0.02,RA,,0.04,0.0,WeatherDisplay:10.37,2013-02-24 05:00:00,
2013-02-24 00:05:00,32.2,30.1,29.86,North,0,0.0,0.0,92,0.02,RA,,0.00,0.0,WeatherDisplay:10.37,2013-02-24 05:05:00,
2013-02-24 00:10:00,32.2,30.1,29.86,North,0,0.0,0.0,92,0.02,CLR,,0.00,0.0,WeatherDisplay:10.37,2013-02-24 05:10:00,
2013-02-24 00:15:00,32.2,30.1,29.86,North,0,0.0,0.0,92,0.01,CLR,,0.00,0.0,WeatherDisplay:10.37,2013-02-24 05:15:00,
2013-02-24 00:20:00,32.2,30.1,29.85,North,0,0.0,0.0,92,0.01,CLR,,0.00,0.0,WeatherDisplay:10.37,2013-02-24 05:20:00,
2013-02-24 00:25:00,32.2,30.1,29.84,North,0,0.0,0.0,92,0.01,CLR,,0.00,0.0,WeatherDisplay:10.37,2013-02-24 05:25:00,
2013-02-24 00:30:00,32.2,30.1,29.84,North,0,0.0,0.0,92,0.01,CLR,,0.00,0.0,WeatherDisplay:10.37,2013-02-24 05:30:00,
2013-02-24 00:35:00,32.2,30.1,29.84,North,0,0.0,0.0,92,0.01,CLR,,0.00,0.0,WeatherDisplay:10.37,2013-02-24 05:35:00,
2013-02-24 00:40:00,32.2,30.1,29.84,North,0,0.0,0.0,92,0.02,RA,,0.01,0.0,WeatherDisplay:10.37,2013-02-24 05:40:00,
2013-02-24 00:45:00,32.2,30.1,29.84,North,0,0.0,0.0,92,0.02,RA,,0.01,0.0,WeatherDisplay:10.37,2013-02-24 05:45:00,
2013-02-24 00:50:00,32.2,30.1,29.84,North,0,0.0,0.0,92,0.02,,,0.01,0.0,WeatherDisplay:10.37,2013-02-24 05:50:00,
2013-02-24 00:55:00,32.2,30.1,29.83,North,0,0.0,0.0,92,0.01,CLR,,0.01,0.0,WeatherDisplay:10.37,2013-02-24 05:55:00,
2013-02-24 01:00:00,32.2,30.1,29.83,North,0,0.0,0.0,92,0.01,CLR,,0.01,0.0,WeatherDisplay:10.37,2013-02-24 06:00:00,
2013-02-24 01:05:00,32.2,30.1,29.83,North,0,0.0,0.0,92,0.01,CLR,,0.01,0.0,WeatherDisplay:10.37,2013-02-24 06:05:00,
2013-02-24 01:10:00,32.2,30.4,29.83,North,0,0.0,0.0,93,0.01,CLR,,0.01,0.0,WeatherDisplay:10.37,2013-02-24 06:10:00,
2013-02-24 01:15:00,32.2,30.4,29.83,North,0,0.0,0.0,93,0.02,RA,,0.02,0.0,WeatherDisplay:10.37,2013-02-24 06:15:00,
2013-02-24 01:20:00,32.2,30.4,29.83,North,0,0.0,0.0,93,0.02,RA,,0.02,0.0,WeatherDisplay:10.37,2013-02-24 06:20:00,
2013-02-24 01:25:00,32.2,30.4,29.83,North,0,0.0,0.0,93,0.02,CLR,,0.02,0.0,WeatherDisplay:10.37,2013-02-24 06:25:00,
2013-02-24 01:30:00,32.2,30.4,29.83,North,0,0.0,0.0,93,0.02,CLR,,0.02,0.0,WeatherDisplay:10.37,2013-02-24 06:30:00,
2013-02-24 01:35:00,32.3,30.5,29.83,North,0,0.0,0.0,93,0.02,CLR,,0.02,0.0,WeatherDisplay:10.37,2013-02-24 06:35:00,
2013-02-24 01:40:00,32.3,30.5,29.83,North,0,0.0,0.0,93,0.01,CLR,,0.02,0.0,WeatherDisplay:10.37,2013-02-24 06:40:00,
2013-02-24 01:45:00,32.3,30.5,29.83,North,0,0.0,0.0,93,0.01,CLR,,0.02,0.0,WeatherDisplay:10.37,2013-02-24 06:45:00,
2013-02-24 01:50:00,32.3,30.5,29.83,North,0,0.0,0.0,93,0.02,RA,,0.03,0.0,WeatherDisplay:10.37,2013-02-24 06:50:00,
2013-02-24 01:55:00,32.3,30.2,29.83,North,0,0.0,0.0,92,0.02,RA,,0.03,0.0,WeatherDisplay:10.37,2013-02-24 06:55:00,
2013-02-24 02:00:00,32.3,30.2,29.82,North,0,0.0,0.0,92,0.02,,,0.03,0.0,WeatherDisplay:10.37,2013-02-24 07:00:00,
2013-02-24 02:05:00,32.3,30.5,29.82,North,0,0.0,0.0,93,0.02,CLR,,0.03,0.0,WeatherDisplay:10.37,2013-02-24 07:05:00,
2013-02-24 02:10:00,32.3,30.5,29.82,North,0,0.0,0.0,93,0.03,RA,,0.04,0.0,WeatherDisplay:10.37,2013-02-24 07:10:00,
2013-02-24 02:15:00,32.3,30.5,29.81,North,0,0.0,0.0,93,0.02,RA,,0.04,0.0,WeatherDisplay:10.37,2013-02-24 07:15:00,
2013-02-24 02:20:00,32.3,30.5,29.81,North,0,0.0,0.0,93,0.02,,,0.04,0.0,WeatherDisplay:10.37,2013-02-24 07:20:00,
2013-02-24 02:25:00,32.3,30.5,29.80,North,0,0.0,0.0,93,0.02,CLR,,0.04,0.0,WeatherDisplay:10.37,2013-02-24 07:25:00,
2013-02-24 02:30:00,32.3,30.5,29.80,North,0,0.0,0.0,93,0.02,CLR,,0.04,0.0,WeatherDisplay:10.37,2013-02-24 07:30:00,
2013-02-24 02:35:00,32.3,30.5,29.79,North,0,0.0,0.0,93,0.02,CLR,,0.04,0.0,WeatherDisplay:10.37,2013-02-24 07:35:00,
2013-02-24 02:40:00,32.3,30.5,29.79,North,0,0.0,0.0,93,0.03,RA,,0.05,0.0,WeatherDisplay:10.37,2013-02-24 07:40:00,
2013-02-24 02:45:00,32.3,30.5,29.79,North,0,0.0,0.0,93,0.03,RA,,0.05,0.0,WeatherDisplay:10.37,2013-02-24 07:45:00,
2013-02-24 02:50:00,32.3,30.5,29.78,North,0,0.0,0.0,93,0.03,,,0.05,0.0,WeatherDisplay:10.37,2013-02-24 07:50:00,
2013-02-24 02:55:00,32.3,30.5,29.77,North,0,0.0,0.0,93,0.02,CLR,,0.05,0.0,WeatherDisplay:10.37,2013-02-24 07:55:00,
2013-02-24 03:00:00,32.3,30.5,29.77,North,0,0.0,0.0,93,0.02,CLR,,0.05,0.0,WeatherDisplay:10.37,2013-02-24 08:00:00,
2013-02-24 03:05:00,32.3,30.5,29.76,North,0,0.0,0.0,93,0.03,RA,,0.06,0.0,WeatherDisplay:10.37,2013-02-24 08:05:00,
2013-02-24 03:10:00,32.3,30.5,29.76,North,0,0.0,0.0,93,0.03,RA,,0.06,0.0,WeatherDisplay:10.37,2013-02-24 08:10:00,
2013-02-24 03:15:00,32.4,30.6,29.76,North,0,0.0,0.0,93,0.02,CLR,,0.06,0.0,WeatherDisplay:10.37,2013-02-24 08:15:00,
2013-02-24 03:20:00,32.4,30.6,29.76,North,0,0.0,0.0,93,0.02,CLR,,0.06,0.0,WeatherDisplay:10.37,2013-02-24 08:20:00,
2013-02-24 03:25:00,32.5,30.7,29.76,North,0,0.0,0.0,93,0.02,CLR,,0.06,0.0,WeatherDisplay:10.37,2013-02-24 08:25:00,
2013-02-24 03:30:00,32.5,30.7,29.76,North,0,0.0,0.0,93,0.02,CLR,,0.06,0.0,WeatherDisplay:10.37,2013-02-24 08:30:00,
2013-02-24 03:35:00,32.6,30.8,29.75,North,0,0.0,0.0,93,0.02,CLR,,0.06,0.0,WeatherDisplay:10.37,2013-02-24 08:35:00,
2013-02-24 03:40:00,32.6,30.8,29.75,North,0,0.0,0.0,93,0.02,CLR,,0.06,0.0,WeatherDisplay:10.37,2013-02-24 08:40:00,
2013-02-24 03:45:00,32.6,30.8,29.75,North,0,0.0,0.0,93,0.02,RA,,0.07,0.0,WeatherDisplay:10.37,2013-02-24 08:45:00,
2013-02-24 03:50:00,32.7,30.9,29.75,North,0,0.0,0.0,93,0.02,RA,,0.07,0.0,WeatherDisplay:10.37,2013-02-24 08:50:00,
2013-02-24 03:55:00,32.7,30.9,29.75,North,0,0.0,0.0,93,0.02,,,0.07,0.0,WeatherDisplay:10.37,2013-02-24 08:55:00,
2013-02-24 04:00:00,32.7,30.9,29.75,North,0,0.0,0.0,93,0.02,CLR,,0.07,0.0,WeatherDisplay:10.37,2013-02-24 09:00:00,
2013-02-24 04:05:00,32.7,30.9,29.75,North,0,0.0,0.0,93,0.01,CLR,,0.07,0.0,WeatherDisplay:10.37,2013-02-24 09:05:00,
2013-02-24 04:10:00,32.7,30.9,29.75,North,0,0.0,0.0,93,0.01,CLR,,0.07,0.0,WeatherDisplay:10.37,2013-02-24 09:10:00,
2013-02-24 04:15:00,32.8,31.0,29.75,North,0,0.0,0.0,93,0.02,RA,,0.08,0.0,WeatherDisplay:10.37,2013-02-24 09:15:00,
2013-02-24 04:20:00,32.8,31.0,29.74,North,0,0.0,0.0,93,0.02,RA,,0.08,0.0,WeatherDisplay:10.37,2013-02-24 09:20:00,
2013-02-24 04:25:00,32.9,31.1,29.74,North,0,0.0,0.0,93,0.02,,,0.08,0.0,WeatherDisplay:10.37,2013-02-24 09:25:00,
2013-02-24 04:30:00,33.0,31.2,29.74,North,0,0.0,0.0,93,0.02,CLR,,0.08,0.0,WeatherDisplay:10.37,2013-02-24 09:30:00,
2013-02-24 04:35:00,33.0,31.2,29.74,North,0,0.0,0.0,93,0.02,CLR,,0.08,0.0,WeatherDisplay:10.37,2013-02-24 09:35:00,
2013-02-24 04:40:00,33.0,31.2,29.74,North,0,0.0,0.0,93,0.03,RA,,0.09,0.0,WeatherDisplay:10.37,2013-02-24 09:40:00,
2013-02-24 04:45:00,33.1,31.3,29.74,North,0,0.0,0.0,93,0.02,RA,,0.09,0.0,WeatherDisplay:10.37,2013-02-24 09:45:00,
2013-02-24 04:50:00,33.1,31.3,29.73,North,0,0.0,0.0,93,0.02,,,0.09,0.0,WeatherDisplay:10.37,2013-02-24 09:50:00,
2013-02-24 04:55:00,33.1,31.3,29.73,North,0,0.0,0.0,93,0.02,CLR,,0.09,0.0,WeatherDisplay:10.37,2013-02-24 09:55:00,
2013-02-24 05:00:00,33.1,31.3,29.73,North,0,0.0,0.0,93,0.02,CLR,,0.09,0.0,WeatherDisplay:10.37,2013-02-24 10:00:00,
2013-02-24 05:05:00,33.1,31.3,29.73,North,0,0.0,0.0,93,0.03,RA,,0.10,0.0,WeatherDisplay:10.37,2013-02-24 10:05:00,
2013-02-24 05:10:00,33.2,31.4,29.73,North,0,0.0,0.0,93,0.03,RA,,0.10,0.0,WeatherDisplay:10.37,2013-02-24 10:10:00,
2013-02-24 05:15:00,33.2,31.4,29.73,North,0,0.0,0.0,93,0.02,,,0.10,0.0,WeatherDisplay:10.37,2013-02-24 10:15:00,
2013-02-24 05:20:00,33.2,31.4,29.73,North,0,0.0,0.0,93,0.02,CLR,,0.10,0.0,WeatherDisplay:10.37,2013-02-24 10:20:00,
2013-02-24 05:25:00,33.3,31.5,29.73,North,0,0.0,0.0,93,0.02,CLR,,0.10,0.0,WeatherDisplay:10.37,2013-02-24 10:25:00,
2013-02-24 05:30:00,33.3,31.5,29.74,North,0,0.0,0.0,93,0.02,CLR,,0.10,0.0,WeatherDisplay:10.37,2013-02-24 10:30:00,
2013-02-24 05:35:00,33.3,31.5,29.74,North,0,0.0,0.0,93,0.03,RA,,0.11,0.0,WeatherDisplay:10.37,2013-02-24 10:35:00,
2013-02-24 05:40:00,33.4,31.6,29.74,North,0,0.0,0.0,93,0.02,RA,,0.11,0.0,WeatherDisplay:10.37,2013-02-24 10:40:00,
2013-02-24 05:45:00,33.4,31.6,29.74,North,0,0.0,0.0,93,0.02,CLR,,0.11,0.0,WeatherDisplay:10.37,2013-02-24 10:45:00,
2013-02-24 05:50:00,33.4,31.6,29.75,North,0,0.0,0.0,93,0.02,CLR,,0.11,0.0,WeatherDisplay:10.37,2013-02-24 10:50:00,
2013-02-24 05:55:00,33.3,31.5,29.75,North,0,0.0,0.0,93,0.03,RA,,0.12,0.0,WeatherDisplay:10.37,2013-02-24 10:55:00,
2013-02-24 06:00:00,33.3,31.5,29.75,North,0,0.0,0.0,93,0.03,RA,,0.12,0.0,WeatherDisplay:10.37,2013-02-24 11:00:00,
2013-02-24 06:05:00,33.3,31.5,29.75,North,0,0.0,0.0,93,0.02,CLR,,0.12,0.0,WeatherDisplay:10.37,2013-02-24 11:05:00,
2013-02-24 06:10:00,33.2,31.4,29.74,North,0,0.0,0.0,93,0.03,RA,,0.13,0.0,WeatherDisplay:10.37,2013-02-24 11:10:00,
2013-02-24 06:15:00,33.2,31.4,29.74,North,0,0.0,0.0,93,0.03,RA,,0.13,0.0,WeatherDisplay:10.37,2013-02-24 11:15:00,
2013-02-24 06:20:00,33.2,31.4,29.73,North,0,0.0,0.0,93,0.04,RA,,0.14,0.0,WeatherDisplay:10.37,2013-02-24 11:20:00,
2013-02-24 06:25:00,33.1,31.3,29.73,North,0,0.0,0.0,93,0.04,RA,,0.14,0.0,WeatherDisplay:10.37,2013-02-24 11:25:00,
2013-02-24 06:30:00,33.1,31.3,29.74,North,0,0.0,0.0,93,0.04,,,0.14,0.0,WeatherDisplay:10.37,2013-02-24 11:30:00,
2013-02-24 06:35:00,33.2,31.4,29.75,North,0,0.0,0.0,93,0.04,RA,,0.15,0.0,WeatherDisplay:10.37,2013-02-24 11:35:00,
2013-02-24 06:40:00,33.1,31.3,29.75,North,0,0.0,0.0,93,0.04,RA,,0.15,0.0,WeatherDisplay:10.37,2013-02-24 11:40:00,
2013-02-24 06:45:00,33.1,31.3,29.75,North,0,0.0,0.0,93,0.05,RA,,0.16,0.0,WeatherDisplay:10.37,2013-02-24 11:45:00,
2013-02-24 06:50:00,33.1,31.3,29.75,North,0,0.0,0.0,93,0.05,RA,,0.16,11.0,WeatherDisplay:10.37,2013-02-24 11:50:00,
2013-02-24 06:55:00,33.1,31.3,29.75,North,0,0.0,0.0,93,0.04,BKN,,0.16,12.0,WeatherDisplay:10.37,2013-02-24 11:55:00,
2013-02-24 07:00:00,33.0,31.2,29.75,North,0,0.0,0.0,93,0.04,BKN,,0.16,7.0,WeatherDisplay:10.37,2013-02-24 12:00:00,
2013-02-24 07:05:00,33.0,31.2,29.75,North,0,0.0,0.0,93,0.04,BKN,,0.16,9.0,WeatherDisplay:10.37,2013-02-24 12:05:00,
2013-02-24 07:10:00,33.0,31.2,29.75,North,0,0.0,0.0,93,0.03,BKN,,0.16,12.0,WeatherDisplay:10.37,2013-02-24 12:10:00,
2013-02-24 07:15:00,32.9,31.1,29.75,North,0,0.0,0.0,93,0.04,RA,,0.17,16.0,WeatherDisplay:10.37,2013-02-24 12:15:00,
2013-02-24 07:20:00,32.9,31.4,29.74,North,0,0.0,0.0,94,0.03,RA,,0.17,16.0,WeatherDisplay:10.37,2013-02-24 12:20:00,
2013-02-24 07:25:00,32.9,31.4,29.74,North,0,0.0,0.0,94,0.03,BKN,,0.17,18.0,WeatherDisplay:10.37,2013-02-24 12:25:00,
2013-02-24 07:30:00,32.8,31.3,29.73,North,0,0.0,0.0,94,0.03,BKN,,0.17,21.0,WeatherDisplay:10.37,2013-02-24 12:30:00,
2013-02-24 07:35:00,32.8,31.3,29.73,North,0,0.0,0.0,94,0.03,BKN,,0.17,23.0,WeatherDisplay:10.37,2013-02-24 12:35:00,
2013-02-24 07:40:00,32.8,31.3,29.73,North,0,0.0,0.0,94,0.03,RA,,0.18,26.0,WeatherDisplay:10.37,2013-02-24 12:40:00,
2013-02-24 07:45:00,32.8,31.3,29.73,North,0,0.0,0.0,94,0.02,RA,,0.18,26.0,WeatherDisplay:10.37,2013-02-24 12:45:00,
2013-02-24 07:50:00,32.8,31.3,29.72,North,0,0.0,0.0,94,0.02,BKN,,0.18,26.0,WeatherDisplay:10.37,2013-02-24 12:50:00,
2013-02-24 07:55:00,32.8,31.3,29.72,North,0,0.0,0.0,94,0.02,BKN,,0.18,28.0,WeatherDisplay:10.37,2013-02-24 12:55:00,
2013-02-24 08:00:00,32.8,31.3,29.72,North,0,0.0,0.0,94,0.02,BKN,,0.18,33.0,WeatherDisplay:10.37,2013-02-24 13:00:00,
2013-02-24 08:05:00,32.8,31.3,29.72,North,0,0.0,0.0,94,0.02,BKN,,0.18,35.0,WeatherDisplay:10.37,2013-02-24 13:05:00,
2013-02-24 08:10:00,32.8,31.3,29.72,North,0,0.0,0.0,94,0.02,BKN,,0.18,35.0,WeatherDisplay:10.37,2013-02-24 13:10:00,
2013-02-24 08:15:00,32.8,31.3,29.71,North,0,0.0,0.0,94,0.01,BKN,,0.18,39.0,WeatherDisplay:10.37,2013-02-24 13:15:00,
2013-02-24 08:20:00,32.8,31.3,29.71,North,0,0.0,0.0,94,0.01,BKN,,0.19,46.0,WeatherDisplay:10.37,2013-02-24 13:20:00,
2013-02-24 08:25:00,32.8,31.3,29.71,North,0,0.0,0.0,94,0.02,RA,,0.19,54.0,WeatherDisplay:10.37,2013-02-24 13:25:00,
2013-02-24 08:30:00,32.8,31.3,29.70,North,0,0.0,0.0,94,0.02,RA,,0.19,58.0,WeatherDisplay:10.37,2013-02-24 13:30:00,
2013-02-24 08:35:00,32.8,31.3,29.70,North,0,0.0,0.0,94,0.02,BKN,,0.19,62.0,WeatherDisplay:10.37,2013-02-24 13:35:00,
2013-02-24 08:40:00,32.9,31.4,29.70,North,0,0.0,0.0,94,0.01,BKN,,0.19,53.0,WeatherDisplay:10.37,2013-02-24 13:40:00,
2013-02-24 08:45:00,32.9,31.4,29.70,North,0,0.0,0.0,94,0.01,BKN,,0.19,54.0,WeatherDisplay:10.37,2013-02-24 13:45:00,
2013-02-24 08:50:00,32.9,31.4,29.70,North,0,0.0,0.0,94,0.02,RA,,0.20,49.0,WeatherDisplay:10.37,2013-02-24 13:50:00,
2013-02-24 08:55:00,33.0,31.5,29.70,North,0,0.0,0.0,94,0.02,RA,,0.20,51.0,WeatherDisplay:10.37,2013-02-24 13:55:00,
2013-02-24 09:00:00,33.0,31.5,29.70,North,0,0.0,0.0,94,0.02,BKN,,0.20,42.0,WeatherDisplay:10.37,2013-02-24 14:00:00,
2013-02-24 09:05:00,33.0,31.5,29.70,North,0,0.0,0.0,94,0.02,BKN,,0.20,72.0,WeatherDisplay:10.37,2013-02-24 14:05:00,
2013-02-24 09:10:00,33.0,31.5,29.70,North,0,0.0,0.0,94,0.02,BKN,,0.20,67.0,WeatherDisplay:10.37,2013-02-24 14:10:00,
2013-02-24 09:15:00,33.1,31.6,29.70,North,0,0.0,0.0,94,0.02,BKN,,0.20,60.0,WeatherDisplay:10.37,2013-02-24 14:15:00,
2013-02-24 09:20:00,33.2,31.7,29.70,North,0,0.0,0.0,94,0.02,BKN,,0.20,70.0,WeatherDisplay:10.37,2013-02-24 14:20:00,
2013-02-24 09:25:00,33.2,31.7,29.70,North,0,0.0,0.0,94,0.02,RA,,0.21,81.0,WeatherDisplay:10.37,2013-02-24 14:25:00,
2013-02-24 09:30:00,33.2,31.7,29.70,North,0,0.0,0.0,94,0.02,RA,,0.21,60.0,WeatherDisplay:10.37,2013-02-24 14:30:00,
2013-02-24 09:35:00,33.2,31.7,29.70,North,0,0.0,0.0,94,0.02,BKN,,0.21,60.0,WeatherDisplay:10.37,2013-02-24 14:35:00,
2013-02-24 09:40:00,33.3,31.8,29.69,North,0,0.0,0.0,94,0.02,BKN,,0.21,65.0,WeatherDisplay:10.37,2013-02-24 14:40:00,
2013-02-24 09:45:00,33.3,31.8,29.68,North,0,0.0,0.0,94,0.03,RA,,0.22,76.0,WeatherDisplay:10.37,2013-02-24 14:45:00,
2013-02-24 09:50:00,33.3,31.8,29.69,North,0,0.0,0.0,94,0.02,RA,,0.22,67.0,WeatherDisplay:10.37,2013-02-24 14:50:00,
2013-02-24 09:55:00,33.3,31.8,29.69,North,0,0.0,0.0,94,0.02,BKN,,0.22,72.0,WeatherDisplay:10.37,2013-02-24 14:55:00,
2013-02-24 10:00:00,33.3,31.8,29.68,North,0,0.0,0.0,94,0.02,BKN,,0.22,79.0,WeatherDisplay:10.37,2013-02-24 15:00:00,
2013-02-24 10:05:00,33.3,31.8,29.68,North,0,0.0,0.0,94,0.02,BKN,,0.22,76.0,WeatherDisplay:10.37,2013-02-24 15:05:00,
2013-02-24 10:10:00,33.3,31.8,29.68,North,0,0.0,0.0,94,0.03,RA,,0.23,70.0,WeatherDisplay:10.37,2013-02-24 15:10:00,
2013-02-24 10:15:00,33.2,31.7,29.69,North,0,0.0,0.0,94,0.03,RA,,0.23,60.0,WeatherDisplay:10.37,2013-02-24 15:15:00,
2013-02-24 10:20:00,33.2,31.7,29.68,North,0,0.0,0.0,94,0.03,BKN,,0.23,54.0,WeatherDisplay:10.37,2013-02-24 15:20:00,
2013-02-24 10:25:00,33.1,31.6,29.68,North,0,0.0,0.0,94,0.02,BKN,,0.23,53.0,WeatherDisplay:10.37,2013-02-24 15:25:00,
2013-02-24 10:30:00,33.0,31.5,29.68,North,0,0.0,0.0,94,0.02,BKN,,0.23,44.0,WeatherDisplay:10.37,2013-02-24 15:30:00,
2013-02-24 10:35:00,32.9,31.4,29.68,North,0,0.0,0.0,94,0.02,BKN,,0.23,40.0,WeatherDisplay:10.37,2013-02-24 15:35:00,
2013-02-24 10:40:00,32.8,31.3,29.68,North,0,0.0,0.0,94,0.02,BKN,,0.23,49.0,WeatherDisplay:10.37,2013-02-24 15:40:00,
2013-02-24 10:45:00,32.8,31.3,29.68,North,0,0.0,0.0,94,0.01,BKN,,0.23,49.0,WeatherDisplay:10.37,2013-02-24 15:45:00,
2013-02-24 10:50:00,32.7,31.2,29.69,North,0,0.0,0.0,94,0.01,BKN,,0.23,49.0,WeatherDisplay:10.37,2013-02-24 15:50:00,
2013-02-24 10:55:00,32.7,31.2,29.68,North,0,0.0,0.0,94,0.01,BKN,,0.24,58.0,WeatherDisplay:10.37,2013-02-24 15:55:00,
2013-02-24 11:00:00,32.7,31.2,29.69,North,0,0.0,0.0,94,0.02,RA,,0.24,62.0,WeatherDisplay:10.37,2013-02-24 16:00:00,
2013-02-24 11:05:00,32.7,31.2,29.69,North,0,0.0,0.0,94,0.02,RA,,0.24,56.0,WeatherDisplay:10.37,2013-02-24 16:05:00,
2013-02-24 11:10:00,32.7,31.2,29.69,North,0,0.0,0.0,94,0.01,BKN,,0.24,47.0,WeatherDisplay:10.37,2013-02-24 16:10:00,
2013-02-24 11:15:00,32.7,31.2,29.69,North,0,0.0,0.0,94,0.01,BKN,,0.24,56.0,WeatherDisplay:10.37,2013-02-24 16:15:00,
2013-02-24 11:20:00,32.7,31.2,29.68,North,0,0.0,0.0,94,0.01,BKN,,0.24,62.0,WeatherDisplay:10.37,2013-02-24 16:20:00,
2013-02-24 11:25:00,32.7,31.2,29.68,North,0,0.0,0.0,94,0.02,RA,,0.25,49.0,WeatherDisplay:10.37,2013-02-24 16:25:00,
2013-02-24 11:30:00,32.7,31.2,29.69,North,0,0.0,0.0,94,0.02,RA,,0.25,39.0,WeatherDisplay:10.37,2013-02-24 16:30:00,
2013-02-24 11:35:00,32.7,31.2,29.69,North,0,0.0,0.0,94,0.02,BKN,,0.25,54.0,WeatherDisplay:10.37,2013-02-24 16:35:00,
2013-02-24 11:40:00,32.7,31.2,29.69,North,0,0.0,0.0,94,0.02,BKN,,0.25,72.0,WeatherDisplay:10.37,2013-02-24 16:40:00,
2013-02-24 11:45:00,32.7,31.2,29.69,North,0,0.0,0.0,94,0.03,RA,,0.26,72.0,WeatherDisplay:10.37,2013-02-24 16:45:00,
2013-02-24 11:50:00,32.8,31.3,29.69,North,0,0.0,0.0,94,0.03,RA,,0.26,74.0,WeatherDisplay:10.37,2013-02-24 16:50:00,
2013-02-24 11:55:00,32.8,31.3,29.69,North,0,0.0,0.0,94,0.03,BKN,,0.26,65.0,WeatherDisplay:10.37,2013-02-24 16:55:00,
2013-02-24 12:00:00,32.9,31.4,29.69,North,0,0.0,0.0,94,0.02,BKN,,0.26,67.0,WeatherDisplay:10.37,2013-02-24 17:00:00,
2013-02-24 12:05:00,32.9,31.4,29.68,North,0,0.0,0.0,94,0.02,BKN,,0.26,79.0,WeatherDisplay:10.37,2013-02-24 17:05:00,
2013-02-24 12:10:00,32.9,31.4,29.68,North,0,0.0,0.0,94,0.03,RA,,0.27,81.0,WeatherDisplay:10.37,2013-02-24 17:10:00,
2013-02-24 12:15:00,33.0,31.5,29.68,North,0,0.0,0.0,94,0.03,RA,,0.27,86.0,WeatherDisplay:10.37,2013-02-24 17:15:00,
2013-02-24 12:20:00,32.9,31.4,29.67,North,0,0.0,0.0,94,0.03,BKN,,0.27,83.0,WeatherDisplay:10.37,2013-02-24 17:20:00,
2013-02-24 12:25:00,32.9,31.4,29.67,North,0,0.0,0.0,94,0.02,BKN,,0.27,83.0,WeatherDisplay:10.37,2013-02-24 17:25:00,
2013-02-24 12:30:00,33.0,31.5,29.67,North,0,0.0,0.0,94,0.02,BKN,,0.27,77.0,WeatherDisplay:10.37,2013-02-24 17:30:00,
2013-02-24 12:35:00,33.0,31.5,29.67,North,0,0.0,0.0,94,0.03,RA,,0.28,72.0,WeatherDisplay:10.37,2013-02-24 17:35:00,
2013-02-24 12:40:00,32.9,31.4,29.67,North,0,0.0,0.0,94,0.03,RA,,0.28,76.0,WeatherDisplay:10.37,2013-02-24 17:40:00,
2013-02-24 12:45:00,32.9,31.4,29.67,North,0,0.0,0.0,94,0.02,BKN,,0.28,81.0,WeatherDisplay:10.37,2013-02-24 17:45:00,
2013-02-24 12:50:00,33.0,31.5,29.67,North,0,0.0,0.0,94,0.02,BKN,,0.28,90.0,WeatherDisplay:10.37,2013-02-24 17:50:00,
2013-02-24 12:55:00,33.0,31.5,29.67,North,0,0.0,0.0,94,0.03,RA,,0.29,120.0,WeatherDisplay:10.37,2013-02-24 17:55:00,
2013-02-24 13:00:00,33.1,31.6,29.66,North,0,0.0,0.0,94,0.03,RA,,0.29,151.0,WeatherDisplay:10.37,2013-02-24 18:00:00,
2013-02-24 13:05:00,33.1,31.3,29.66,North,0,0.0,0.0,93,0.03,BKN,,0.29,144.0,WeatherDisplay:10.37,2013-02-24 18:05:00,
2013-02-24 13:10:00,33.2,31.4,29.67,North,0,0.0,0.0,93,0.03,RA,,0.30,118.0,WeatherDisplay:10.37,2013-02-24 18:10:00,
2013-02-24 13:15:00,33.2,31.4,29.67,North,0,0.0,0.0,93,0.03,RA,,0.30,95.0,WeatherDisplay:10.37,2013-02-24 18:15:00,
2013-02-24 13:20:00,33.2,31.4,29.67,North,0,0.0,0.0,93,0.03,BKN,,0.30,81.0,WeatherDisplay:10.37,2013-02-24 18:20:00,
2013-02-24 13:25:00,33.2,31.4,29.67,North,0,0.0,0.0,93,0.03,BKN,,0.30,88.0,WeatherDisplay:10.37,2013-02-24 18:25:00,
2013-02-24 13:30:00,33.1,31.6,29.67,North,0,0.0,0.0,94,0.04,RA,,0.31,111.0,WeatherDisplay:10.37,2013-02-24 18:30:00,
2013-02-24 13:35:00,33.0,31.5,29.67,North,0,0.0,0.0,94,0.03,RA,,0.31,114.0,WeatherDisplay:10.37,2013-02-24 18:35:00,
2013-02-24 13:40:00,33.1,31.6,29.67,North,0,0.0,0.0,94,0.03,BKN,,0.31,137.0,WeatherDisplay:10.37,2013-02-24 18:40:00,
2013-02-24 13:45:00,33.1,31.6,29.67,North,0,0.0,0.0,94,0.03,BKN,,0.32,174.0,WeatherDisplay:10.37,2013-02-24 18:45:00,
2013-02-24 13:50:00,33.2,31.4,29.67,North,0,0.0,0.0,93,0.04,RA,,0.32,223.0,WeatherDisplay:10.37,2013-02-24 18:50:00,
2013-02-24 13:55:00,33.4,31.6,29.67,North,0,0.0,0.0,93,0.03,RA,,0.32,283.0,WeatherDisplay:10.37,2013-02-24 18:55:00,
2013-02-24 14:00:00,33.7,32.2,29.66,North,0,0.0,0.0,94,0.03,SCT,,0.32,294.0,WeatherDisplay:10.37,2013-02-24 19:00:00,
2013-02-24 14:05:00,34.0,32.2,29.66,North,0,0.0,0.0,93,0.04,RA,,0.33,288.0,WeatherDisplay:10.37,2013-02-24 19:05:00,
2013-02-24 14:10:00,34.3,32.5,29.67,North,0,0.0,0.0,93,0.04,RA,,0.33,244.0,WeatherDisplay:10.37,2013-02-24 19:10:00,
2013-02-24 14:15:00,34.4,32.6,29.67,North,0,0.0,0.0,93,0.04,RA,,0.34,213.0,WeatherDisplay:10.37,2013-02-24 19:15:00,
2013-02-24 14:20:00,34.3,32.5,29.67,North,0,0.0,0.0,93,0.04,RA,,0.34,127.0,WeatherDisplay:10.37,2013-02-24 19:20:00,
2013-02-24 14:25:00,34.1,32.6,29.67,North,0,0.0,0.0,94,0.05,RA,,0.35,100.0,WeatherDisplay:10.37,2013-02-24 19:25:00,
2013-02-24 14:30:00,34.0,32.2,29.67,North,0,0.0,0.0,93,0.05,RA,,0.35,97.0,WeatherDisplay:10.37,2013-02-24 19:30:00,
2013-02-24 14:35:00,33.9,32.1,29.67,North,0,0.0,0.0,93,0.05,RA,,0.36,83.0,WeatherDisplay:10.37,2013-02-24 19:35:00,
2013-02-24 14:40:00,33.7,31.9,29.68,North,0,0.0,0.0,93,0.05,RA,,0.36,81.0,WeatherDisplay:10.37,2013-02-24 19:40:00,
2013-02-24 14:45:00,33.5,31.7,29.68,North,0,0.0,0.0,93,0.05,BKN,,0.36,69.0,WeatherDisplay:10.37,2013-02-24 19:45:00,
2013-02-24 14:50:00,33.5,31.7,29.68,North,0,0.0,0.0,93,0.04,BKN,,0.36,69.0,WeatherDisplay:10.37,2013-02-24 19:50:00,
2013-02-24 14:55:00,33.3,31.5,29.68,North,0,0.0,0.0,93,0.04,BKN,,0.36,79.0,WeatherDisplay:10.37,2013-02-24 19:55:00,
2013-02-24 15:00:00,33.3,31.5,29.68,North,0,0.0,0.0,93,0.04,BKN,,0.36,90.0,WeatherDisplay:10.37,2013-02-24 20:00:00,
2013-02-24 15:05:00,33.2,31.4,29.69,North,0,0.0,0.0,93,0.04,RA,,0.37,67.0,WeatherDisplay:10.37,2013-02-24 20:05:00,
2013-02-24 15:10:00,33.1,31.3,29.69,North,0,0.0,0.0,93,0.04,RA,,0.37,63.0,WeatherDisplay:10.37,2013-02-24 20:10:00,
2013-02-24 15:15:00,33.0,31.2,29.69,North,0,0.0,0.0,93,0.03,BKN,,0.37,65.0,WeatherDisplay:10.37,2013-02-24 20:15:00,
2013-02-24 15:20:00,32.9,31.1,29.69,North,0,0.0,0.0,93,0.03,BKN,,0.37,60.0,WeatherDisplay:10.37,2013-02-24 20:20:00,
2013-02-24 15:25:00,32.9,31.1,29.70,North,0,0.0,0.0,93,0.02,BKN,,0.37,49.0,WeatherDisplay:10.37,2013-02-24 20:25:00,
2013-02-24 15:30:00,32.8,31.0,29.70,North,0,0.0,0.0,93,0.02,BKN,,0.37,49.0,WeatherDisplay:10.37,2013-02-24 20:30:00,
2013-02-24 15:35:00,32.8,31.0,29.70,North,0,0.0,0.0,93,0.01,BKN,,0.37,47.0,WeatherDisplay:10.37,2013-02-24 20:35:00,
2013-02-24 15:40:00,32.7,30.9,29.70,North,0,0.0,0.0,93,0.01,BKN,,0.37,39.0,WeatherDisplay:10.37,2013-02-24 20:40:00,
2013-02-24 15:45:00,32.7,30.9,29.70,North,0,0.0,0.0,93,0.01,BKN,,0.37,44.0,WeatherDisplay:10.37,2013-02-24 20:45:00,
2013-02-24 15:50:00,32.7,30.9,29.70,North,0,0.0,0.0,93,0.02,RA,,0.38,51.0,WeatherDisplay:10.37,2013-02-24 20:50:00,
2013-02-24 15:55:00,32.6,30.8,29.70,North,0,0.0,0.0,93,0.02,RA,,0.38,51.0,WeatherDisplay:10.37,2013-02-24 20:55:00,
2013-02-24 16:00:00,32.6,30.8,29.70,North,0,0.0,0.0,93,0.02,BKN,,0.38,49.0,WeatherDisplay:10.37,2013-02-24 21:00:00,
2013-02-24 16:05:00,32.6,30.8,29.70,North,0,0.0,0.0,93,0.01,BKN,,0.38,56.0,WeatherDisplay:10.37,2013-02-24 21:05:00,
2013-02-24 16:10:00,32.5,30.7,29.70,North,0,0.0,0.0,93,0.01,BKN,,0.38,56.0,WeatherDisplay:10.37,2013-02-24 21:10:00,
2013-02-24 16:15:00,32.6,30.8,29.70,North,0,0.0,0.0,93,0.01,BKN,,0.38,56.0,WeatherDisplay:10.37,2013-02-24 21:15:00,
2013-02-24 16:20:00,32.6,30.8,29.70,North,0,0.0,0.0,93,0.01,BKN,,0.38,53.0,WeatherDisplay:10.37,2013-02-24 21:20:00,
2013-02-24 16:25:00,32.6,30.8,29.70,North,0,0.0,0.0,93,0.01,BKN,,0.38,56.0,WeatherDisplay:10.37,2013-02-24 21:25:00,
2013-02-24 16:30:00,32.6,30.8,29.70,North,0,0.0,0.0,93,0.02,RA,,0.39,54.0,WeatherDisplay:10.37,2013-02-24 21:30:00,
2013-02-24 16:35:00,32.6,30.8,29.71,North,0,0.0,0.0,93,0.02,RA,,0.39,63.0,WeatherDisplay:10.37,2013-02-24 21:35:00,
2013-02-24 16:40:00,32.6,30.8,29.71,North,0,0.0,0.0,93,0.02,BKN,,0.39,49.0,WeatherDisplay:10.37,2013-02-24 21:40:00,
2013-02-24 16:45:00,32.5,30.7,29.71,North,0,0.0,0.0,93,0.02,BKN,,0.39,25.0,WeatherDisplay:10.37,2013-02-24 21:45:00,
2013-02-24 16:50:00,32.4,30.6,29.71,North,0,0.0,0.0,93,0.01,BKN,,0.39,16.0,WeatherDisplay:10.37,2013-02-24 21:50:00,
2013-02-24 16:55:00,32.4,30.6,29.72,North,0,0.0,0.0,93,0.01,BKN,,0.39,18.0,WeatherDisplay:10.37,2013-02-24 21:55:00,
2013-02-24 17:00:00,32.4,30.6,29.72,North,0,0.0,0.0,93,0.01,BKN,,0.39,16.0,WeatherDisplay:10.37,2013-02-24 22:00:00,
2013-02-24 17:05:00,32.3,30.5,29.72,North,0,0.0,0.0,93,0.01,BKN,,0.39,12.0,WeatherDisplay:10.37,2013-02-24 22:05:00,
2013-02-24 17:10:00,32.3,30.5,29.73,North,0,0.0,0.0,93,0.01,BKN,,0.39,9.0,WeatherDisplay:10.37,2013-02-24 22:10:00,
2013-02-24 17:15:00,32.2,30.4,29.73,North,0,0.0,0.0,93,0.02,RA,,0.40,9.0,WeatherDisplay:10.37,2013-02-24 22:15:00,
2013-02-24 17:20:00,32.2,30.4,29.73,North,0,0.0,0.0,93,0.02,RA,,0.40,5.0,WeatherDisplay:10.37,2013-02-24 22:20:00,
2013-02-24 17:25:00,32.1,30.3,29.73,North,0,0.0,0.0,93,0.02,,,0.40,0.0,WeatherDisplay:10.37,2013-02-24 22:25:00,
2013-02-24 17:30:00,32.1,30.3,29.74,North,0,0.0,0.0,93,0.01,CLR,,0.40,0.0,WeatherDisplay:10.37,2013-02-24 22:30:00,
2013-02-24 17:35:00,32.1,30.3,29.73,North,0,0.0,0.0,93,0.01,OVC,,0.40,0.0,WeatherDisplay:10.37,2013-02-24 22:35:00,
2013-02-24 17:40:00,32.1,30.3,29.73,North,0,0.0,0.0,93,0.01,OVC,,0.40,0.0,WeatherDisplay:10.37,2013-02-24 22:40:00,
2013-02-24 17:45:00,32.0,30.2,29.74,North,0,0.0,0.0,93,0.01,OVC,,0.40,0.0,WeatherDisplay:10.37,2013-02-24 22:45:00,
2013-02-24 17:50:00,31.9,30.1,29.74,North,0,0.0,0.0,93,0.01,OVC,,0.40,0.0,WeatherDisplay:10.37,2013-02-24 22:50:00,
2013-02-24 17:55:00,31.9,30.1,29.74,North,0,0.0,0.0,93,0.01,OVC,,0.40,0.0,WeatherDisplay:10.37,2013-02-24 22:55:00,
2013-02-24 18:00:00,31.9,30.1,29.74,North,0,0.0,0.0,93,0.01,CLR,,0.40,0.0,WeatherDisplay:10.37,2013-02-24 23:00:00,
2013-02-24 18:05:00,31.8,30.0,29.75,North,0,0.0,0.0,93,0.01,CLR,,0.40,0.0,WeatherDisplay:10.37,2013-02-24 23:05:00,
2013-02-24 18:10:00,31.8,30.0,29.75,North,0,0.0,0.0,93,0.01,CLR,,0.40,0.0,WeatherDisplay:10.37,2013-02-24 23:10:00,
2013-02-24 18:15:00,31.8,30.0,29.75,North,0,0.0,0.0,93,0.00,CLR,,0.40,0.0,WeatherDisplay:10.37,2013-02-24 23:15:00,
2013-02-24 18:20:00,31.7,29.9,29.75,North,0,0.0,0.0,93,0.00,CLR,,0.40,0.0,WeatherDisplay:10.37,2013-02-24 23:20:00,
2013-02-24 18:25:00,31.7,29.9,29.75,North,0,0.0,0.0,93,0.00,CLR,,0.40,0.0,WeatherDisplay:10.37,2013-02-24 23:25:00,
2013-02-24 18:30:00,31.7,29.9,29.76,North,0,0.0,0.0,93,0.00,CLR,,0.40,0.0,WeatherDisplay:10.37,2013-02-24 23:30:00,
2013-02-24 18:35:00,31.6,29.8,29.76,North,0,0.0,0.0,93,0.00,CLR,,0.40,0.0,WeatherDisplay:10.37,2013-02-24 23:35:00,
2013-02-24 18:40:00,31.5,29.7,29.76,North,0,0.0,0.0,93,0.00,CLR,,0.40,0.0,WeatherDisplay:10.37,2013-02-24 23:40:00,
2013-02-24 18:45:00,31.5,29.7,29.76,North,0,0.0,0.0,93,0.00,CLR,,0.40,0.0,WeatherDisplay:10.37,2013-02-24 23:45:00,
2013-02-24 18:50:00,31.5,29.7,29.76,North,0,0.0,0.0,93,0.00,CLR,,0.40,0.0,WeatherDisplay:10.37,2013-02-24 23:50:00,
2013-02-24 18:55:00,31.5,29.7,29.77,North,0,0.0,0.0,93,0.00,CLR,,0.40,0.0,WeatherDisplay:10.37,2013-02-24 23:55:00,
2013-02-24 19:00:00,31.5,29.7,29.77,North,0,0.0,0.0,93,0.00,CLR,,0.40,0.0,WeatherDisplay:10.37,2013-02-25 00:00:00,
2013-02-24 19:05:00,31.4,29.6,29.77,North,0,0.0,0.0,93,0.00,CLR,,0.40,0.0,WeatherDisplay:10.37,2013-02-25 00:05:00,
2013-02-24 19:10:00,31.4,29.6,29.78,North,0,0.0,0.0,93,0.00,CLR,,0.40,0.0,WeatherDisplay:10.37,2013-02-25 00:10:00,
2013-02-24 19:15:00,31.3,29.5,29.78,North,0,0.0,0.0,93,0.00,CLR,,0.40,0.0,WeatherDisplay:10.37,2013-02-25 00:15:00,
2013-02-24 19:20:00,31.3,29.5,29.78,North,0,0.0,0.0,93,0.00,CLR,,0.40,0.0,WeatherDisplay:10.37,2013-02-25 00:20:00,
2013-02-24 19:25:00,31.2,29.4,29.79,North,0,0.0,0.0,93,0.00,CLR,,0.40,0.0,WeatherDisplay:10.37,2013-02-25 00:25:00,
2013-02-24 19:30:00,31.2,29.4,29.79,North,0,0.0,0.0,93,0.00,CLR,,0.40,0.0,WeatherDisplay:10.37,2013-02-25 00:30:00,
2013-02-24 19:35:00,31.1,29.3,29.79,North,0,0.0,0.0,93,0.00,CLR,,0.40,0.0,WeatherDisplay:10.37,2013-02-25 00:35:00,
2013-02-24 19:40:00,31.1,29.3,29.79,North,0,0.0,0.0,93,0.00,CLR,,0.40,0.0,WeatherDisplay:10.37,2013-02-25 00:40:00,
2013-02-24 19:45:00,31.0,29.2,29.79,North,0,0.0,0.0,93,0.00,CLR,,0.40,0.0,WeatherDisplay:10.37,2013-02-25 00:45:00,
2013-02-24 19:50:00,31.0,29.2,29.80,North,0,0.0,0.0,93,0.00,CLR,,0.40,0.0,WeatherDisplay:10.37,2013-02-25 00:50:00,
2013-02-24 19:55:00,31.0,29.2,29.80,North,0,0.0,0.0,93,0.00,CLR,,0.40,0.0,WeatherDisplay:10.37,2013-02-25 00:55:00,
2013-02-24 20:00:00,31.0,29.2,29.80,North,0,0.0,0.0,93,0.00,CLR,,0.40,0.0,WeatherDisplay:10.37,2013-02-25 01:00:00,
2013-02-24 20:05:00,31.0,29.2,29.80,North,0,0.0,0.0,93,0.00,CLR,,0.40,0.0,WeatherDisplay:10.37,2013-02-25 01:05:00,
2013-02-24 20:10:00,30.9,29.1,29.80,North,0,0.0,0.0,93,0.00,CLR,,0.40,0.0,WeatherDisplay:10.37,2013-02-25 01:10:00,
2013-02-24 20:15:00,31.0,29.2,29.81,North,0,0.0,0.0,93,0.00,CLR,,0.40,0.0,WeatherDisplay:10.37,2013-02-25 01:15:00,
2013-02-24 20:20:00,31.0,29.2,29.81,North,0,0.0,0.0,93,0.00,CLR,,0.40,0.0,WeatherDisplay:10.37,2013-02-25 01:20:00,
2013-02-24 20:25:00,31.0,29.2,29.81,North,0,0.0,0.0,93,0.00,CLR,,0.40,0.0,WeatherDisplay:10.37,2013-02-25 01:25:00,
2013-02-24 20:30:00,31.0,29.2,29.81,North,0,0.0,0.0,93,0.00,CLR,,0.40,0.0,WeatherDisplay:10.37,2013-02-25 01:30:00,
2013-02-24 20:35:00,31.0,29.2,29.82,North,0,0.0,0.0,93,0.00,CLR,,0.40,0.0,WeatherDisplay:10.37,2013-02-25 01:35:00,
2013-02-24 20:40:00,30.9,29.1,29.82,North,0,0.0,0.0,93,0.00,CLR,,0.40,0.0,WeatherDisplay:10.37,2013-02-25 01:40:00,
2013-02-24 20:45:00,30.9,29.1,29.82,North,0,0.0,0.0,93,0.00,CLR,,0.40,0.0,WeatherDisplay:10.37,2013-02-25 01:45:00,
2013-02-24 20:50:00,30.9,29.1,29.82,North,0,0.0,0.0,93,0.00,CLR,,0.40,0.0,WeatherDisplay:10.37,2013-02-25 01:50:00,
2013-02-24 20:55:00,30.8,29.0,29.82,North,0,0.0,0.0,93,0.00,CLR,,0.40,0.0,WeatherDisplay:10.37,2013-02-25 01:55:00,
2013-02-24 21:00:00,30.8,29.0,29.83,North,0,0.0,0.0,93,0.00,CLR,,0.40,0.0,WeatherDisplay:10.37,2013-02-25 02:00:00,
2013-02-24 21:05:00,30.8,29.0,29.83,North,0,0.0,0.0,93,0.00,CLR,,0.40,0.0,WeatherDisplay:10.37,2013-02-25 02:05:00,
2013-02-24 21:10:00,30.7,28.9,29.83,North,0,0.0,0.0,93,0.00,CLR,,0.40,0.0,WeatherDisplay:10.37,2013-02-25 02:10:00,
2013-02-24 21:15:00,30.7,28.9,29.83,North,0,0.0,0.0,93,0.00,CLR,,0.40,0.0,WeatherDisplay:10.37,2013-02-25 02:15:00,
2013-02-24 21:20:00,30.6,28.8,29.83,North,0,0.0,0.0,93,0.00,CLR,,0.40,0.0,WeatherDisplay:10.37,2013-02-25 02:20:00,
2013-02-24 21:25:00,30.6,28.8,29.84,North,0,0.0,0.0,93,0.00,CLR,,0.40,0.0,WeatherDisplay:10.37,2013-02-25 02:25:00,
2013-02-24 21:30:00,30.6,28.8,29.84,North,0,0.0,0.0,93,0.00,CLR,,0.40,0.0,WeatherDisplay:10.37,2013-02-25 02:30:00,
2013-02-24 21:35:00,30.6,28.8,29.84,North,0,0.0,0.0,93,0.00,CLR,,0.40,0.0,WeatherDisplay:10.37,2013-02-25 02:35:00,
2013-02-24 21:40:00,30.6,28.8,29.84,North,0,0.0,0.0,93,0.00,CLR,,0.40,0.0,WeatherDisplay:10.37,2013-02-25 02:40:00,
2013-02-24 21:45:00,30.6,28.8,29.84,North,0,0.0,0.0,93,0.00,CLR,,0.40,0.0,WeatherDisplay:10.37,2013-02-25 02:45:00,
2013-02-24 21:50:00,30.6,28.8,29.84,North,0,0.0,0.0,93,0.00,CLR,,0.40,0.0,WeatherDisplay:10.37,2013-02-25 02:50:00,
2013-02-24 21:55:00,30.6,28.8,29.84,North,0,0.0,0.0,93,0.00,CLR,,0.40,0.0,WeatherDisplay:10.37,2013-02-25 02:55:00,
2013-02-24 22:00:00,30.6,28.8,29.85,North,0,0.0,0.0,93,0.00,CLR,,0.40,0.0,WeatherDisplay:10.37,2013-02-25 03:00:00,
2013-02-24 22:05:00,30.6,28.8,29.85,North,0,0.0,0.0,93,0.00,CLR,,0.40,0.0,WeatherDisplay:10.37,2013-02-25 03:05:00,
2013-02-24 22:10:00,30.6,28.8,29.85,North,0,0.0,0.0,93,0.00,CLR,,0.40,0.0,WeatherDisplay:10.37,2013-02-25 03:10:00,
2013-02-24 22:15:00,30.6,28.8,29.84,North,0,0.0,0.0,93,0.00,CLR,,0.40,0.0,WeatherDisplay:10.37,2013-02-25 03:15:00,
2013-02-24 22:20:00,30.6,28.8,29.84,North,0,0.0,0.0,93,0.00,CLR,,0.40,0.0,WeatherDisplay:10.37,2013-02-25 03:20:00,
2013-02-24 22:25:00,30.6,28.8,29.84,North,0,0.0,0.0,93,0.00,CLR,,0.40,0.0,WeatherDisplay:10.37,2013-02-25 03:25:00,
2013-02-24 22:30:00,30.6,28.8,29.85,North,0,0.0,0.0,93,0.00,CLR,,0.40,0.0,WeatherDisplay:10.37,2013-02-25 03:30:00,
2013-02-24 22:35:00,30.6,28.8,29.85,North,0,0.0,0.0,93,0.00,CLR,,0.40,0.0,WeatherDisplay:10.37,2013-02-25 03:35:00,
2013-02-24 22:40:00,30.5,28.7,29.85,North,0,0.0,0.0,93,0.00,CLR,,0.40,0.0,WeatherDisplay:10.37,2013-02-25 03:40:00,
2013-02-24 22:45:00,30.6,28.8,29.85,North,0,0.0,0.0,93,0.00,CLR,,0.40,0.0,WeatherDisplay:10.37,2013-02-25 03:45:00,
2013-02-24 22:50:00,30.6,28.8,29.85,North,0,0.0,0.0,93,0.00,CLR,,0.40,0.0,WeatherDisplay:10.37,2013-02-25 03:50:00,
2013-02-24 22:55:00,30.6,28.8,29.85,North,0,0.0,0.0,93,0.00,CLR,,0.40,0.0,WeatherDisplay:10.37,2013-02-25 03:55:00,
2013-02-24 23:00:00,30.6,28.8,29.85,North,0,0.0,0.0,93,0.00,CLR,,0.40,0.0,WeatherDisplay:10.37,2013-02-25 04:00:00,
2013-02-24 23:05:00,30.6,28.8,29.85,North,0,0.0,0.0,93,0.00,CLR,,0.40,0.0,WeatherDisplay:10.37,2013-02-25 04:05:00,
2013-02-24 23:10:00,30.6,28.8,29.85,North,0,0.0,0.0,93,0.00,CLR,,0.40,0.0,WeatherDisplay:10.37,2013-02-25 04:10:00,
2013-02-24 23:15:00,30.6,28.8,29.85,North,0,0.0,0.0,93,0.00,CLR,,0.40,0.0,WeatherDisplay:10.37,2013-02-25 04:15:00,
2013-02-24 23:20:00,30.5,28.7,29.85,North,0,0.0,0.0,93,0.00,CLR,,0.40,0.0,WeatherDisplay:10.37,2013-02-25 04:20:00,
2013-02-24 23:25:00,30.6,28.8,29.85,North,0,0.0,0.0,93,0.00,CLR,,0.40,0.0,WeatherDisplay:10.37,2013-02-25 04:25:00,
2013-02-24 23:30:00,30.6,28.8,29.85,North,0,0.0,0.0,93,0.00,CLR,,0.40,0.0,WeatherDisplay:10.37,2013-02-25 04:30:00,
2013-02-24 23:35:00,30.6,28.8,29.86,North,0,0.0,0.0,93,0.00,CLR,,0.40,0.0,WeatherDisplay:10.37,2013-02-25 04:35:00,
2013-02-24 23:40:00,30.6,28.8,29.85,North,0,0.0,0.0,93,0.00,CLR,,0.40,0.0,WeatherDisplay:10.37,2013-02-25 04:40:00,
2013-02-24 23:45:00,30.6,28.8,29.85,North,0,0.0,0.0,93,0.00,CLR,,0.40,0.0,WeatherDisplay:10.37,2013-02-25 04:45:00,
2013-02-24 23:50:00,30.6,28.8,29.86,North,0,0.0,0.0,93,0.00,CLR,,0.40,0.0,WeatherDisplay:10.37,2013-02-25 04:50:00,
2013-02-24 23:55:00,30.6,28.8,29.86,North,0,0.0,0.0,93,0.00,CLR,,0.40,0.0,WeatherDisplay:10.37,2013-02-25 04:55:00,